EW4685 Weather Reports


Display with metric or nautical units.
time (UTC)temp
F
wind
direction
speed
MPH
gust
MPH
rain 1hr
in
rain 24hr
in
rain mn
in
humidity
%
barometer
mb
20260506173712 49 29 1.0 5.0 0.00 0.01 0.00 77 1012.5
20260506173432 49 22 2.0 6.0 0.00 0.01 0.00 76 1012.5
20260506172659 49 269 2.0 8.0 0.00 0.01 0.00 76 1012.6
20260506172153 49 287 3.0 8.0 0.00 0.01 0.00 76 1012.7
20260506171647 49 303 2.0 8.0 0.00 0.01 0.00 75 1012.8
20260506171140 49 30 1.0 6.0 0.00 0.01 0.00 75 1012.9
20260506170634 49 301 2.0 9.0 0.00 0.01 0.00 74 1012.8
20260506170129 49 267 2.0 10.0 0.00 0.01 0.00 75 1012.8
20260506165622 49 291 3.0 12.0 0.00 0.01 0.00 75 1013.0
20260506165354 49 10 3.0 12.0 0.00 0.01 0.00 75 1013.0
20260506164832 49 294 2.0 9.0 0.00 0.01 0.00 75 1013.2
20260506164109 48 273 2.0 9.0 0.00 0.01 0.00 75 1013.2
20260506163558 48 313 1.0 7.0 0.00 0.01 0.00 74 1013.4
20260506163050 48 292 1.0 7.0 0.00 0.01 0.00 74 1013.4
20260506162548 48 53 1.0 4.0 0.00 0.01 0.00 73 1013.5
20260506162040 48 46 1.0 4.0 0.00 0.01 0.00 73 1013.5
20260506161534 48 28 1.0 4.0 0.00 0.01 0.00 73 1013.5
20260506161028 48 70 0.0 2.0 0.00 0.01 0.00 72 1013.5
20260506160522 48 33 0.0 2.0 0.00 0.01 0.00 73 1013.6
20260506160236 48 90 0.0 2.0 0.00 0.01 0.00 72 1013.7
20260506155510 48 46 0.0 0.0 0.00 0.01 0.00 73 1014.0
20260506155003 48 46 0.0 0.0 0.00 0.01 0.00 73 1014.2
20260506154457 48 46 0.0 0.0 0.00 0.01 0.00 71 1014.2
20260506154216 48 46 0.0 2.0 0.00 0.01 0.00 71 1014.2
20260506153445 48 48 1.0 8.0 0.00 0.01 0.00 71 1014.4
20260506152939 48 215 1.0 8.0 0.00 0.01 0.00 71 1014.5
20260506152433 47 304 1.0 8.0 0.00 0.01 0.00 72 1014.5
20260506151927 47 280 1.0 8.0 0.00 0.01 0.00 73 1014.4
20260506151641 47 312 1.0 6.0 0.00 0.01 0.00 74 1014.4
20260506151138 47 315 1.0 8.0 0.00 0.01 0.00 74 1014.4
20260506150419 47 48 1.0 8.0 0.00 0.01 0.00 74 1014.4
20260506145918 47 33 1.0 8.0 0.00 0.01 0.00 74 1014.4
20260506145416 47 31 0.0 2.0 0.00 0.01 0.00 75 1014.5
20260506144915 47 54 0.0 0.0 0.00 0.01 0.00 74 1014.5
20260506144416 47 297 1.0 8.0 0.00 0.01 0.00 74 1014.5
20260506143913 46 303 1.0 8.0 0.00 0.01 0.00 76 1014.6
20260506143855 46 257 0.0 0.0 0.00 0.01 0.00 78 1014.7
20260506142910 46 257 0.0 1.0 0.00 0.01 0.00 78 1014.5
20260506142407 46 50 0.0 2.0 0.00 0.01 0.00 80 1014.6
20260506141906 46 293 0.0 2.0 0.00 0.01 0.00 80 1014.7
20260506141406 46 59 0.0 4.0 0.00 0.01 0.00 80 1014.6
20260506140905 46 355 0.0 4.0 0.00 0.01 0.00 79 1014.7
20260506140403 47 317 0.0 3.0 0.00 0.01 0.00 79 1014.8
20260506135901 47 317 0.0 3.0 0.00 0.01 0.01 78 1015.0
20260506135400 47 268 0.0 3.0 0.00 0.01 0.01 78 1014.8
20260506134901 47 344 0.0 5.0 0.00 0.01 0.01 78 1014.7
20260506134359 47 293 1.0 5.0 0.00 0.01 0.01 79 1014.8
20260506133858 47 12 1.0 5.0 0.00 0.01 0.01 79 1014.8
20260506133620 47 32 1.0 4.0 0.00 0.01 0.01 79 1015.0
20260506132940 48 42 1.0 6.0 0.00 0.01 0.01 79 1015.1
20260506132101 48 3 1.0 6.0 0.00 0.01 0.01 79 1015.0
20260506131557 48 40 1.0 6.0 0.00 0.01 0.01 79 1015.0
20260506130831 48 13 1.0 6.0 0.00 0.01 0.01 79 1015.2
20260506130325 48 315 1.0 6.0 0.00 0.01 0.01 79 1015.1
20260506125819 49 17 1.0 6.0 0.00 0.01 0.01 78 1015.1
20260506125314 48 12 1.0 6.0 0.00 0.01 0.01 79 1015.2
20260506124807 49 31 1.0 6.0 0.00 0.01 0.01 79 1015.2
20260506124301 49 28 1.0 8.0 0.00 0.01 0.01 79 1015.4
20260506123755 49 24 1.0 8.0 0.00 0.01 0.01 79 1015.4
20260506123251 49 353 1.0 6.0 0.00 0.01 0.01 80 1015.5
20260506122743 48 36 1.0 5.0 0.00 0.01 0.01 81 1015.6
20260506122456 48 310 1.0 5.0 0.00 0.01 0.01 81 1015.6
20260506121731 48 36 1.0 5.0 0.00 0.01 0.01 82 1015.6
20260506121225 48 344 1.0 4.0 0.00 0.01 0.01 82 1015.7
20260506120724 48 24 1.0 4.0 0.00 0.01 0.01 82 1015.7
20260506120214 48 353 1.0 5.0 0.00 0.01 0.01 82 1015.7
20260506115714 48 313 1.0 6.0 0.00 0.01 0.01 82 1015.7
20260506115436 48 321 2.0 6.0 0.00 0.01 0.01 83 1015.7
20260506114705 48 35 1.0 5.0 0.00 0.01 0.01 83 1015.5
20260506114203 48 30 1.0 3.0 0.00 0.01 0.01 82 1015.7
20260506113702 48 32 2.0 4.0 0.00 0.01 0.01 82 1015.8
20260506113201 48 23 2.0 4.0 0.00 0.01 0.01 83 1015.8
20260506112701 48 10 1.0 4.0 0.00 0.01 0.01 82 1015.8
20260506112202 49 30 1.0 7.0 0.00 0.01 0.01 82 1015.8
20260506111701 49 30 1.0 7.0 0.00 0.01 0.01 82 1015.9
20260506111421 49 9 1.0 7.0 0.00 0.01 0.01 82 1015.9
20260506110920 49 52 1.0 7.0 0.00 0.01 0.01 82 1016.0
20260506110159 49 56 1.0 5.0 0.00 0.01 0.01 82 1016.0
20260506105659 49 26 1.0 5.0 0.00 0.01 0.01 82 1015.9
20260506105159 49 50 1.0 4.0 0.00 0.01 0.01 82 1015.9
20260506104659 49 28 2.0 7.0 0.00 0.01 0.01 82 1016.0
20260506104159 49 5 2.0 7.0 0.00 0.01 0.01 82 1016.0
20260506103659 49 26 1.0 6.0 0.00 0.01 0.01 82 1016.0
20260506103159 49 340 2.0 6.0 0.00 0.01 0.01 82 1016.0
20260506102653 49 314 2.0 5.0 0.00 0.01 0.01 82 1016.1
20260506102148 49 33 2.0 6.0 0.00 0.01 0.01 81 1016.1
20260506101647 50 32 2.0 6.0 0.00 0.01 0.01 82 1016.1
20260506101147 49 36 1.0 7.0 0.00 0.01 0.01 82 1016.1
20260506100647 49 62 1.0 7.0 0.00 0.01 0.01 82 1016.2
20260506100148 49 16 1.0 4.0 0.00 0.01 0.01 83 1016.1
20260506095647 49 31 2.0 5.0 0.00 0.01 0.01 83 1016.1
20260506095146 50 314 2.0 5.0 0.00 0.01 0.01 83 1016.1
20260506094646 50 19 2.0 5.0 0.00 0.01 0.01 83 1016.1
20260506094413 50 335 1.0 5.0 0.00 0.01 0.01 83 1016.1
20260506093645 50 31 1.0 5.0 0.00 0.01 0.01 82 1016.1
20260506093630 50 57 2.0 6.0 0.00 0.01 0.01 82 1016.1
20260506092646 50 22 3.0 6.0 0.00 0.01 0.01 82 1016.1
20260506092146 50 69 2.0 6.0 0.00 0.01 0.01 82 1016.2
20260506091650 51 348 1.0 4.0 0.00 0.01 0.01 82 1016.2
20260506091148 51 68 1.0 4.0 0.00 0.01 0.01 82 1016.2
20260506090908 51 42 1.0 4.0 0.00 0.01 0.01 82 1016.2
20260506090142 51 51 2.0 7.0 0.00 0.01 0.01 81 1016.2
20260506085640 51 33 2.0 7.0 0.00 0.01 0.01 81 1016.2
20260506085142 51 53 2.0 6.0 0.00 0.01 0.01 81 1016.2
20260506084641 51 55 2.0 6.0 0.00 0.01 0.01 81 1016.3
20260506084141 51 10 1.0 5.0 0.00 0.01 0.01 81 1016.2
20260506083641 52 19 1.0 6.0 0.00 0.01 0.01 80 1016.3
20260506083141 52 33 1.0 6.0 0.00 0.01 0.01 79 1016.3
20260506082641 52 12 2.0 6.0 0.00 0.01 0.01 78 1016.3
20260506082136 53 351 3.0 11.0 0.00 0.01 0.01 78 1016.3
20260506081637 53 55 3.0 11.0 0.00 0.01 0.01 78 1016.3
20260506081136 53 54 1.0 5.0 0.00 0.01 0.01 77 1016.3
20260506080637 53 52 1.0 7.0 0.00 0.01 0.01 77 1016.2
20260506080402 53 48 1.0 7.0 0.00 0.01 0.01 76 1016.3
20260506073137 55 22 2.0 5.0 0.00 0.01 0.01 72 1016.1
20260506072638 55 29 1.0 5.0 0.00 0.01 0.01 71 1016.1
20260506072137 55 49 1.0 8.0 0.00 0.01 0.01 70 1016.1
20260506071637 56 8 2.0 8.0 0.00 0.01 0.01 69 1016.0
20260506071135 56 18 2.0 7.0 0.00 0.01 0.01 68 1016.1
20260506070634 56 28 1.0 6.0 0.00 0.01 0.01 67 1016.0
20260506070134 56 326 1.0 8.0 0.00 0.01 0.01 67 1016.0
20260506062127 59 356 2.0 9.0 0.00 0.01 0.01 64 1016.1
20260506061625 60 10 2.0 8.0 0.00 0.01 0.01 63 1016.1
20260506061349 60 284 2.0 12.0 0.00 0.01 0.01 63 1016.1
20260506060625 60 286 3.0 12.0 0.00 0.01 0.01 63 1016.1
20260506060351 60 319 2.0 8.0 0.00 0.01 0.01 62 1016.1
20260506051105 61 302 2.0 8.0 0.00 0.01 0.01 57 1016.4
20260506050558 62 287 2.0 8.0 0.00 0.01 0.01 57 1016.5
20260506045039 62 280 1.0 6.0 0.00 0.01 0.01 56 1016.5
20260506044534 61 307 2.0 6.0 0.00 0.01 0.01 57 1016.8
20260506044028 62 263 2.0 7.0 0.00 0.01 0.01 54 1016.8
20260506043521 61 313 2.0 8.0 0.00 0.01 0.01 54 1016.7
20260506043237 62 294 1.0 8.0 0.00 0.01 0.01 54 1016.7
20260506042510 61 29 2.0 8.0 0.00 0.01 0.01 53 1016.9
20260506042005 61 64 2.0 8.0 0.00 0.01 0.01 51 1016.9
20260506041459 62 350 2.0 9.0 0.00 0.01 0.01 51 1016.9
20260506040952 62 318 1.0 9.0 0.00 0.01 0.01 50 1017.0
20260506040446 62 18 1.0 8.0 0.00 0.01 0.01 50 1017.1
20260506035940 62 289 1.0 8.0 0.00 0.01 0.01 48 1017.1
20260506035434 62 337 1.0 7.0 0.00 0.01 0.01 51 1017.2
20260506034927 62 10 2.0 7.0 0.00 0.01 0.01 50 1017.2
20260506034421 62 62 2.0 7.0 0.00 0.01 0.01 46 1017.3
20260506033916 61 12 3.0 8.0 0.00 0.01 0.01 46 1017.4
20260506033410 61 46 2.0 8.0 0.00 0.01 0.01 47 1017.5
20260506032905 61 320 2.0 10.0 0.00 0.01 0.01 48 1017.5
20260506032357 61 300 2.0 10.0 0.00 0.01 0.01 48 1017.6
20260506031852 61 53 2.0 8.0 0.00 0.01 0.01 51 1017.7
20260506031347 61 28 3.0 9.0 0.00 0.01 0.01 53 1017.7
20260506030841 61 354 3.0 9.0 0.00 0.01 0.01 53 1017.9
20260506030334 61 6 2.0 9.0 0.00 0.01 0.01 55 1018.0
20260506025828 61 40 2.0 10.0 0.00 0.01 0.01 57 1018.1
20260506025327 61 66 2.0 10.0 0.00 0.01 0.01 57 1018.1
20260506024816 61 305 2.0 8.0 0.00 0.01 0.01 58 1018.2
20260506024310 61 269 1.0 8.0 0.00 0.01 0.01 58 1018.5
20260506023804 61 296 2.0 8.0 0.00 0.01 0.01 59 1018.5
20260506023519 60 82 2.0 9.0 0.00 0.01 0.01 59 1018.6
20260506022751 61 46 2.0 9.0 0.00 0.01 0.01 58 1018.7
20260506022246 61 342 1.0 7.0 0.00 0.01 0.01 61 1018.7
20260506022232 60 43 2.0 7.0 0.00 0.01 0.01 61 1018.9
20260506021233 60 343 2.0 6.0 0.00 0.01 0.01 60 1019.1
20260506020728 60 74 1.0 5.0 0.00 0.01 0.01 61 1019.2
20260506020222 60 282 2.0 7.0 0.00 0.01 0.01 60 1019.3
20260506015717 60 327 2.0 7.0 0.00 0.01 0.01 61 1019.4
20260506015210 60 322 1.0 6.0 0.00 0.01 0.01 62 1019.5
20260506014711 60 66 1.0 6.0 0.00 0.01 0.01 62 1019.5
20260506014208 60 61 1.0 4.0 0.00 0.01 0.01 62 1019.6
20260506013936 59 319 2.0 6.0 0.00 0.01 0.01 63 1019.8
20260506013208 59 318 2.0 6.0 0.00 0.01 0.01 63 1019.8
20260506012706 59 290 2.0 8.0 0.00 0.01 0.01 63 1019.9
20260506012206 59 285 1.0 8.0 0.00 0.01 0.01 64 1020.1
20260506011706 59 355 1.0 4.0 0.00 0.01 0.01 64 1020.2
20260506011207 59 308 1.0 4.0 0.00 0.01 0.01 65 1020.2
20260506010710 59 302 1.0 5.0 0.00 0.01 0.01 65 1020.2
20260506010202 59 33 1.0 5.0 0.00 0.01 0.01 65 1020.3
20260506005702 58 51 0.0 3.0 0.00 0.01 0.01 67 1020.3
20260506005201 58 100 0.0 3.0 0.00 0.01 0.01 68 1020.4
20260506004700 57 305 0.0 3.0 0.00 0.01 0.01 69 1020.5
20260506004158 56 310 0.0 1.0 0.00 0.01 0.01 71 1020.5
20260506003658 56 206 0.0 2.0 0.00 0.01 0.01 73 1020.6
20260506003159 56 206 0.0 2.0 0.00 0.01 0.01 74 1020.6
20260506002658 56 25 0.0 0.0 0.00 0.01 0.01 75 1020.7
20260506002423 55 25 0.0 0.0 0.00 0.01 0.01 78 1020.8
20260506001658 54 159 0.0 0.0 0.00 0.01 0.01 80 1020.9
20260506001158 53 159 0.0 0.0 0.00 0.01 0.01 80 1021.0
20260506000656 53 159 0.0 1.0 0.00 0.01 0.01 81 1021.0
20260506000156 52 159 0.0 1.0 0.00 0.01 0.01 82 1021.0
20260505235917 52 202 0.0 1.0 0.00 0.01 0.01 82 1021.1
20260505235155 52 219 0.0 1.0 0.00 0.01 0.01 83 1021.1
20260505234912 51 81 0.0 0.0 0.00 0.01 0.01 84 1021.1
20260505234413 50 81 0.0 0.0 0.00 0.01 0.01 85 1021.1
20260505233910 50 81 0.0 0.0 0.00 0.01 0.01 87 1021.2
20260505233418 49 81 0.0 0.0 0.00 0.01 0.01 89 1021.2
20260505232652 49 81 0.0 0.0 0.00 0.01 0.01 90 1021.2
20260505232152 48 81 0.0 0.0 0.00 0.01 0.01 92 1021.2
20260505231910 48 26 0.0 0.0 0.00 0.01 0.01 95 1021.2
20260505231152 47 39 0.0 0.0 0.00 0.01 0.01 96 1021.2
20260505230652 47 39 0.0 0.0 0.00 0.01 0.01 97 1021.3
20260505230155 47 39 0.0 0.0 0.00 0.01 0.01 97 1021.3
20260505225652 46 39 0.0 0.0 0.00 0.01 0.01 97 1021.4
20260505225151 45 39 0.0 0.0 0.00 0.01 0.01 97 1021.4
20260505224920 45 39 0.0 0.0 0.00 0.01 0.01 97 1021.5
20260505224149 44 39 0.0 0.0 0.00 0.01 0.01 97 1021.5
20260505223650 43 39 0.0 0.0 0.00 0.01 0.01 97 1021.5
20260505223419 44 39 0.0 0.0 0.00 0.01 0.01 97 1021.5
20260505222650 43 39 0.0 0.0 0.00 0.01 0.01 97 1021.5
20260505222149 43 39 0.0 0.0 0.00 0.01 0.01 97 1021.4
20260505221650 43 39 0.0 0.0 0.00 0.01 0.01 97 1021.3
20260505221411 42 39 0.0 0.0 0.00 0.01 0.01 97 1021.3
20260505220650 41 39 0.0 0.0 0.00 0.01 0.01 97 1021.3
20260505220150 40 39 0.0 0.0 0.00 0.01 0.01 97 1021.3
20260505215651 39 39 0.0 0.0 0.00 0.01 0.01 96 1021.2
20260505215150 38 39 0.0 0.0 0.00 0.01 0.01 96 1021.2
20260505214650 38 39 0.0 0.0 0.00 0.01 0.01 96 1021.2
20260505214150 37 39 0.0 0.0 0.00 0.01 0.01 96 1021.1
20260505213651 37 39 0.0 0.0 0.00 0.01 0.01 96 1021.1
20260505213415 37 39 0.0 0.0 0.00 0.01 0.01 96 1021.1
20260505212648 37 39 0.0 0.0 0.00 0.01 0.01 96 1021.1
20260505212148 37 39 0.0 0.0 0.00 0.01 0.01 96 1021.1
20260505211646 37 39 0.0 0.0 0.00 0.01 0.01 96 1021.1
20260505211144 37 39 0.0 0.0 0.01 0.01 0.01 96 1021.1
20260505211124 37 39 0.0 0.0 0.01 0.01 0.01 96 1021.0
20260505210141 37 39 0.0 0.0 0.01 0.01 0.01 96 1021.0
20260505205904 37 39 0.0 0.0 0.01 0.01 0.01 96 1021.0
20260505205143 37 39 0.0 0.0 0.01 0.01 0.01 96 1021.0
20260505204856 37 39 0.0 0.0 0.01 0.01 0.01 96 1021.0
20260505204133 37 39 0.0 0.0 0.01 0.01 0.01 96 1020.9
20260505203847 37 39 0.0 0.0 0.01 0.01 0.01 96 1020.9
20260505203119 37 39 0.0 0.0 0.01 0.01 0.01 96 1020.9
20260505202615 37 39 0.0 0.0 0.01 0.01 0.01 96 1020.9
20260505202107 37 39 0.0 0.0 0.01 0.01 0.01 96 1020.8
20260505201601 37 39 0.0 0.0 0.01 0.01 0.01 96 1020.8
20260505201104 37 39 0.0 0.0 0.00 0.00 0.00 96 1020.8
20260505200832 37 39 0.0 0.0 0.00 0.00 0.00 96 1020.8
20260505200540 38 39 0.0 0.0 0.00 0.00 0.00 96 1020.7
20260505195601 38 39 0.0 0.0 0.00 0.00 0.00 96 1020.7
20260505195101 38 39 0.0 0.0 0.00 0.00 0.00 96 1020.6
20260505194600 38 39 0.0 0.0 0.00 0.00 0.00 96 1020.6
20260505194059 38 39 0.0 0.0 0.00 0.00 0.00 96 1020.6
20260505193556 38 39 0.0 0.0 0.00 0.00 0.00 96 1020.6
20260505193054 38 39 0.0 0.0 0.00 0.00 0.00 96 1020.6
20260505192554 38 39 0.0 0.0 0.00 0.00 0.00 96 1020.6
20260505192054 38 39 0.0 0.0 0.00 0.00 0.00 96 1020.5
20260505191810 38 39 0.0 0.0 0.00 0.00 0.00 96 1020.6
20260505191313 38 39 0.0 0.0 0.00 0.00 0.00 96 1020.6
20260505190551 38 39 0.0 0.0 0.00 0.00 0.00 96 1020.5
20260505190049 38 39 0.0 0.0 0.00 0.00 0.00 96 1020.7
20260505185547 38 39 0.0 0.0 0.00 0.00 0.00 96 1020.6
20260505185045 38 39 0.0 0.0 0.00 0.00 0.00 96 1020.6
20260505184544 38 39 0.0 0.0 0.00 0.00 0.00 96 1020.6
20260505184043 39 39 0.0 0.0 0.00 0.00 0.00 96 1020.6
20260505183539 39 39 0.0 0.0 0.00 0.00 0.00 96 1020.6
20260505183034 38 39 0.0 0.0 0.00 0.00 0.00 96 1020.5
20260505182527 38 39 0.0 0.0 0.00 0.00 0.00 96 1020.6
20260505182021 38 39 0.0 0.0 0.00 0.00 0.00 95 1020.6
20260505181516 39 39 0.0 0.0 0.00 0.00 0.00 96 1020.5
20260505181009 39 39 0.0 0.0 0.00 0.00 0.00 96 1020.5
20260505180505 39 39 0.0 0.0 0.00 0.00 0.00 95 1020.5
20260505175958 39 39 0.0 0.0 0.00 0.00 0.00 95 1020.5
20260505175451 39 39 0.0 0.0 0.00 0.00 0.00 95 1020.5
20260505174946 39 39 0.0 0.0 0.00 0.00 0.00 95 1020.5
20260505174439 39 39 0.0 0.0 0.00 0.00 0.00 95 1020.6
20260505173935 40 39 0.0 0.0 0.00 0.00 0.00 95 1020.6